Вернуться в каталог

XM-5

АктивенСвязьGEO
NORAD 37185·PAYLOAD·🇺🇸 United States

Запущен Oct 14, 2010 с Baikonur Cosmodrome

Loading…

TLE

СвежийSource: Space-Track

Эпоха: Sep 14, 2026, 12:29 UTC

1 37185U 10053A   26257.52058617 -.00000031  00000-0  00000-0 0  9994
2 37185   0.0730 271.6519 0000265 200.5673 313.5107  1.00270421 58373

Отслеживайте XM-5 в реальном времени с AllMySat

Download on the App Store